Time,TemperatureF,DewpointF,PressureIn,WindDirection,WindDirectionDegrees,WindSpeedMPH,WindSpeedGustMPH,Humidity,HourlyPrecipIn,Conditions,Clouds,dailyrainin,SolarRadiationWatts/m^2,SoftwareType,DateUTC
2013-01-13 00:00:00,38.0,36.0,-100.00,WSW,247,7.0,-999.0,90,0.05,,,-99.99,0.000000,,2013-01-13 05:00:00,
2013-01-13 00:33:00,38.0,36.0,-100.00,WSW,247,7.0,-999.0,90,0.05,,,-99.99,0.000000,,2013-01-13 05:33:00,
2013-01-13 00:42:00,38.0,36.0,-100.00,WSW,247,7.0,-999.0,90,0.05,,,-99.99,0.000000,,2013-01-13 05:42:00,
2013-01-13 00:53:00,38.0,36.0,-100.00,WSW,247,7.0,-999.0,90,0.05,,,-99.99,0.000000,,2013-01-13 05:53:00,
2013-01-13 01:00:00,36.0,34.0,-100.00,ESE,112,7.0,-999.0,91,0.03,,,-99.99,0.000000,,2013-01-13 06:00:00,
2013-01-13 01:42:00,36.0,34.0,-100.00,ESE,112,7.0,-999.0,91,0.03,,,-99.99,0.000000,,2013-01-13 06:42:00,
2013-01-13 01:52:00,36.0,34.0,-100.00,ESE,112,7.0,-999.0,91,0.03,,,-99.99,0.000000,,2013-01-13 06:52:00,
2013-01-13 02:00:00,36.0,33.0,-100.00,East,90,5.0,-999.0,91,0.03,,,-99.99,0.000000,,2013-01-13 07:00:00,
2013-01-13 02:33:00,36.0,33.0,-100.00,East,90,5.0,-999.0,91,0.03,,,-99.99,0.000000,,2013-01-13 07:33:00,
2013-01-13 02:42:00,36.0,33.0,-100.00,East,90,5.0,-999.0,91,0.03,,,-99.99,0.000000,,2013-01-13 07:42:00,
2013-01-13 02:53:00,36.0,33.0,-100.00,East,90,5.0,-999.0,91,0.03,,,-99.99,0.000000,,2013-01-13 07:53:00,
2013-01-13 03:00:00,35.0,33.0,-100.00,SSW,202,2.0,-999.0,92,0.02,,,-99.99,0.000000,,2013-01-13 08:00:00,
2013-01-13 03:42:00,35.0,33.0,-100.00,SSW,202,2.0,-999.0,92,0.02,,,-99.99,0.000000,,2013-01-13 08:42:00,
2013-01-13 03:53:00,35.0,33.0,-100.00,SSW,202,2.0,-999.0,92,0.02,,,-99.99,0.000000,,2013-01-13 08:53:00,
2013-01-13 04:00:00,34.0,33.0,-100.00,South,180,4.0,-999.0,93,0.01,,,-99.99,0.000000,,2013-01-13 09:00:00,
2013-01-13 04:42:00,34.0,33.0,-100.00,South,180,4.0,-999.0,93,0.01,,,-99.99,0.000000,,2013-01-13 09:42:00,
2013-01-13 04:52:00,34.0,33.0,-100.00,South,180,4.0,-999.0,93,0.01,,,-99.99,0.000000,,2013-01-13 09:52:00,
2013-01-13 05:00:00,34.0,33.0,-100.00,ESE,112,2.0,-999.0,93,-99.99,,,-99.99,0.000000,,2013-01-13 10:00:00,
2013-01-13 05:42:00,34.0,33.0,-100.00,ESE,112,2.0,-999.0,93,-99.99,,,-99.99,0.000000,,2013-01-13 10:42:00,
2013-01-13 05:53:00,34.0,33.0,-100.00,ESE,112,2.0,-999.0,93,-99.99,,,-99.99,0.000000,,2013-01-13 10:53:00,
2013-01-13 06:00:00,34.0,33.0,-100.00,SSW,202,0.0,-999.0,94,0.01,,,-99.99,0.000000,,2013-01-13 11:00:00,
2013-01-13 06:43:00,34.0,33.0,-100.00,SSW,202,0.0,-999.0,94,0.01,,,-99.99,0.000000,,2013-01-13 11:43:00,
2013-01-13 06:53:00,34.0,33.0,-100.00,SSW,202,0.0,-999.0,94,0.01,,,-99.99,0.000000,,2013-01-13 11:53:00,
2013-01-13 07:00:00,34.0,33.0,-100.00,SE,135,0.0,-999.0,94,-99.99,,,-99.99,0.000000,,2013-01-13 12:00:00,
2013-01-13 07:42:00,34.0,33.0,-100.00,SE,135,0.0,-999.0,94,-99.99,,,-99.99,0.000000,,2013-01-13 12:42:00,
2013-01-13 07:53:00,34.0,33.0,-100.00,SE,135,0.0,-999.0,94,-99.99,,,-99.99,0.000000,,2013-01-13 12:53:00,
2013-01-13 08:00:00,34.0,33.0,-100.00,WNW,292,2.0,-999.0,94,-99.99,,,-99.99,0.000000,,2013-01-13 13:00:00,
2013-01-13 08:33:00,34.0,33.0,-100.00,WNW,292,2.0,-999.0,94,-99.99,,,-99.99,0.000000,,2013-01-13 13:33:00,
2013-01-13 08:43:00,34.0,33.0,-100.00,WNW,292,2.0,-999.0,94,-99.99,,,-99.99,0.000000,,2013-01-13 13:43:00,
2013-01-13 08:53:00,34.0,33.0,-100.00,WNW,292,2.0,-999.0,94,-99.99,,,-99.99,0.000000,,2013-01-13 13:53:00,
2013-01-13 09:00:00,34.0,33.0,-100.00,WNW,292,2.0,-999.0,95,-99.99,,,-99.99,3.480000,,2013-01-13 14:00:00,
2013-01-13 09:43:00,34.0,33.0,-100.00,WNW,292,2.0,-999.0,95,-99.99,,,-99.99,3.480000,,2013-01-13 14:43:00,
2013-01-13 09:53:00,34.0,33.0,-100.00,WNW,292,2.0,-999.0,95,-99.99,,,-99.99,3.480000,,2013-01-13 14:53:00,
2013-01-13 11:00:00,33.0,31.0,-100.00,NW,315,9.0,-999.0,93,-99.99,,,-99.99,35.959999,,2013-01-13 16:00:00,
2013-01-13 11:43:00,33.0,31.0,-100.00,NW,315,9.0,-999.0,93,-99.99,,,-99.99,35.959999,,2013-01-13 16:43:00,
2013-01-13 11:53:00,33.0,31.0,-100.00,NW,315,9.0,-999.0,93,-99.99,,,-99.99,35.959999,,2013-01-13 16:53:00,
2013-01-13 12:00:00,32.0,30.0,-100.00,West,270,7.0,-999.0,92,-99.99,,,-99.99,39.439999,,2013-01-13 17:00:00,
2013-01-13 12:43:00,32.0,30.0,-100.00,West,270,7.0,-999.0,92,-99.99,,,-99.99,39.439999,,2013-01-13 17:43:00,
2013-01-13 12:53:00,32.0,30.0,-100.00,West,270,7.0,-999.0,92,-99.99,,,-99.99,39.439999,,2013-01-13 17:53:00,
2013-01-13 13:00:00,32.0,29.0,-100.00,NW,315,5.0,-999.0,91,-99.99,,,-99.99,51.040001,,2013-01-13 18:00:00,
2013-01-13 13:43:00,32.0,29.0,-100.00,NW,315,5.0,-999.0,91,-99.99,,,-99.99,51.040001,,2013-01-13 18:43:00,
2013-01-13 13:53:00,32.0,29.0,-100.00,NW,315,5.0,-999.0,91,-99.99,,,-99.99,51.040001,,2013-01-13 18:53:00,
2013-01-13 14:00:00,32.0,29.0,-100.00,NW,315,7.0,-999.0,89,-99.99,,,-99.99,25.520000,,2013-01-13 19:00:00,
2013-01-13 14:43:00,32.0,29.0,-100.00,NW,315,7.0,-999.0,89,-99.99,,,-99.99,25.520000,,2013-01-13 19:43:00,
2013-01-13 14:53:00,32.0,29.0,-100.00,NW,315,7.0,-999.0,89,-99.99,,,-99.99,25.520000,,2013-01-13 19:53:00,
2013-01-13 15:00:00,31.0,29.0,-100.00,NNW,337,2.0,-999.0,92,-99.99,,,-99.99,26.680000,,2013-01-13 20:00:00,
2013-01-13 15:43:00,31.0,29.0,-100.00,NNW,337,2.0,-999.0,92,-99.99,,,-99.99,26.680000,,2013-01-13 20:43:00,
2013-01-13 15:53:00,31.0,29.0,-100.00,NNW,337,2.0,-999.0,92,-99.99,,,-99.99,26.680000,,2013-01-13 20:53:00,
2013-01-13 16:00:00,30.0,29.0,-100.00,NNW,337,0.0,-999.0,94,-99.99,,,-99.99,19.719999,,2013-01-13 21:00:00,
2013-01-13 16:43:00,30.0,29.0,-100.00,NNW,337,0.0,-999.0,94,-99.99,,,-99.99,19.719999,,2013-01-13 21:43:00,
2013-01-13 16:53:00,30.0,29.0,-100.00,NNW,337,0.0,-999.0,94,-99.99,,,-99.99,19.719999,,2013-01-13 21:53:00,
2013-01-13 18:00:00,29.0,28.0,-100.00,NNW,337,0.0,-999.0,95,-99.99,,,-99.99,5.800000,,2013-01-13 23:00:00,
2013-01-13 18:43:00,29.0,28.0,-100.00,NNW,337,0.0,-999.0,95,-99.99,,,-99.99,5.800000,,2013-01-13 23:43:00,
2013-01-13 18:53:00,29.0,28.0,-100.00,NNW,337,0.0,-999.0,95,-99.99,,,-99.99,5.800000,,2013-01-13 23:53:00,
2013-01-13 19:00:00,28.0,26.0,-100.00,NNW,337,0.0,-999.0,93,-99.99,,,-99.99,0.000000,,2013-01-14 00:00:00,
2013-01-13 19:43:00,28.0,26.0,-100.00,NNW,337,0.0,-999.0,93,-99.99,,,-99.99,0.000000,,2013-01-14 00:43:00,
2013-01-13 19:53:00,28.0,26.0,-100.00,NNW,337,0.0,-999.0,93,-99.99,,,-99.99,0.000000,,2013-01-14 00:53:00,
2013-01-13 20:00:00,27.0,24.0,-100.00,NNW,337,0.0,-999.0,88,-99.99,,,-99.99,0.000000,,2013-01-14 01:00:00,
2013-01-13 20:42:00,27.0,24.0,-100.00,NNW,337,0.0,-999.0,88,-99.99,,,-99.99,0.000000,,2013-01-14 01:42:00,
2013-01-13 20:53:00,27.0,24.0,-100.00,NNW,337,0.0,-999.0,88,-99.99,,,-99.99,0.000000,,2013-01-14 01:53:00,
2013-01-13 21:00:00,27.0,23.0,-100.00,NNW,337,0.0,-999.0,81,-99.99,,,-99.99,0.000000,,2013-01-14 02:00:00,
2013-01-13 21:43:00,27.0,23.0,-100.00,NNW,337,0.0,-999.0,81,-99.99,,,-99.99,0.000000,,2013-01-14 02:43:00,
2013-01-13 21:53:00,27.0,23.0,-100.00,NNW,337,0.0,-999.0,81,-99.99,,,-99.99,0.000000,,2013-01-14 02:53:00,
2013-01-13 22:00:00,26.0,21.0,-100.00,NNW,337,0.0,-999.0,80,-99.99,,,-99.99,0.000000,,2013-01-14 03:00:00,
2013-01-13 22:43:00,26.0,21.0,-100.00,NNW,337,0.0,-999.0,80,-99.99,,,-99.99,0.000000,,2013-01-14 03:43:00,
2013-01-13 22:53:00,26.0,21.0,-100.00,NNW,337,0.0,-999.0,80,-99.99,,,-99.99,0.000000,,2013-01-14 03:53:00,
2013-01-13 23:00:00,24.0,18.0,-100.00,NNW,337,0.0,-999.0,79,-99.99,,,-99.99,0.000000,,2013-01-14 04:00:00,
2013-01-13 23:32:00,24.0,18.0,-100.00,NNW,337,0.0,-999.0,79,-99.99,,,-99.99,0.000000,,2013-01-14 04:32:00,
2013-01-13 23:42:00,24.0,18.0,-100.00,NNW,337,0.0,-999.0,79,-99.99,,,-99.99,0.000000,,2013-01-14 04:42:00,
2013-01-13 23:53:00,24.0,18.0,-100.00,NNW,337,0.0,-999.0,79,-99.99,,,-99.99,0.000000,,2013-01-14 04:53:00,